Volver al catálogo

CZ-6A DEB

ActivoPO
NORAD 60685·DEBRIS·🇨🇳 China

Lanzado Aug 6, 2024 desde Taiyuan Satellite Launch Center

Loading…

Próximos Pases (próximas 24 horas)

TLE

ActualizadoSource: Space-Track

Época: Sep 14, 2026, 06:59 UTC

1 60685U 24140CN  26257.29116566  .00001787  00000-0  45152-3 0  9997
2 60685  88.9959 260.7194 0077021   6.0196 354.1917 14.48848361110754

Sigue CZ-6A DEB en tiempo real con AllMySat

Download on the App Store